QPF
0.00 0.00 0.00 0.00 0.00 0.00 0.00 0.00 0.00 0.00 0.00 0.00 0.00 0.00 0.00 0.00 0.00 0.00 0.00 0.00 0.00 0.00 0.00 0.00 0.00 0.00 0.00 0.00 0.00 0.00 0.00 0.00 0.00 0.00 0.00 0.01 0.00 0.00 0.00 0.00 0.01 0.01 0.02 0.05 0.02 0.05 0.01
0.00 0.00 0.00 0.00 0.00 0.00 0.00 0.00 0.00 0.00 0.00 0.00 0.00 0.00 0.00 0.00 0.00 0.00 0.00 0.00 0.00 0.00 0.00 0.00 0.00 0.00 0.00 0.00 0.00 0.00 0.00 0.00 0.00 0.00 0.00 0.03 0.01 0.00 0.00 0.00 0.01 0.00 0.02 0.03 0.02 0.02 0.04
0.00 0.00 0.00 0.00 0.00 0.00 0.00 0.00 0.00 0.00 0.00 0.00 0.00 0.00 0.00 0.00 0.00 0.00 0.00 0.00 0.00 0.00 0.00 0.00 0.00 0.00 0.00 0.00 0.00 0.00 0.00 0.00 0.00 0.00 0.00 0.01 0.03 0.00 0.00 0.00 0.00 0.00 0.02 0.04 0.02 0.01 0.05
0.00 0.00 0.00 0.00 0.00 0.00 0.00 0.00 0.00 0.00 0.00 0.00 0.00 0.00 0.00 0.00 0.00 0.00 0.00 0.00 0.00 0.00 0.00 0.00 0.00 0.00 0.00 0.00 0.00 0.00 0.00 0.00 0.00 0.00 0.00 0.01 0.05 0.02 0.01 0.00 0.01 0.01 0.04 0.05 0.02 0.01 0.04
0.00 0.00 0.00 0.00 0.00 0.00 0.00 0.00 0.00 0.00 0.00 0.00 0.00 0.00 0.00 0.00 0.00 0.00 0.00 0.00 0.00 0.00 0.00 0.00 0.00 0.00 0.00 0.00 0.00 0.00 0.00 0.01 0.02 0.02 0.01 0.05 0.06 0.02 0.01 0.00 0.00 0.01 0.04 0.06 0.02 0.01 0.02
0.00 0.00 0.00 0.00 0.00 0.00 0.00 0.00 0.00 0.00 0.00 0.00 0.00 0.00 0.00 0.00 0.00 0.00 0.00 0.00 0.00 0.00 0.00 0.00 0.00 0.00 0.00 0.00 0.00 0.00 0.00 0.01 0.00 0.02 0.03 0.04 0.01 0.01 0.00 0.00 0.00 0.00 0.01 0.02 0.01 0.01 0.02
0.00 0.00 0.00 0.00 0.00 0.00 0.00 0.00 0.00 0.00 0.00 0.00 0.00 0.00 0.00 0.00 0.00 0.00 0.00 0.00 0.00 0.00 0.00 0.00 0.00 0.00 0.00 0.00 0.00 0.00 0.00 0.00 0.00 0.01 0.01 0.02 0.00 0.00 0.00 0.01 0.00 0.00 0.00 0.00 0.01 0.01 0.01
0.00 0.00 0.00 0.00 0.00 0.00 0.00 0.00 0.00 0.00 0.00 0.00 0.00 0.00 0.00 0.00 0.00 0.00 0.00 0.00 0.00 0.00 0.00 0.00 0.00 0.00 0.00 0.00 0.00 0.00 0.00 0.00 0.00 0.01 0.01 0.01 0.00 0.00 0.01 0.02 0.01 0.01 0.02 0.01 0.00 0.00 0.00
0.00 0.00 0.00 0.00 0.00 0.00 0.00 0.00 0.00 0.00 0.00 0.00 0.00 0.00 0.00 0.00 0.00 0.00 0.00 0.00 0.00 0.00 0.00 0.00 0.00 0.00 0.00 0.00 0.00 0.00 0.00 0.00 0.00 0.00 0.00 0.00 0.00 0.00 0.02 0.02 0.01 0.00 0.00 0.00 0.00 0.00 0.00
0.00 0.00 0.00 0.00 0.00 0.00 0.00 0.00 0.00 0.00 0.00 0.00 0.00 0.00 0.00 0.00 0.00 0.00 0.00 0.00 0.00 0.00 0.00 0.00 0.00 0.00 0.00 0.00 0.00 0.00 0.00 0.00 0.00 0.00 0.00 0.00 0.00 0.00 0.02 0.01 0.00 0.00 0.00 0.00 0.00 0.00 0.00
0.00 0.00 0.00 0.00 0.00 0.00 0.00 0.00 0.00 0.00 0.00 0.00 0.00 0.00 0.00 0.00 0.00 0.00 0.00 0.00 0.00 0.00 0.00 0.00 0.00 0.00 0.00 0.00 0.00 0.00 0.00 0.00 0.00 0.00 0.00 0.00 0.00 0.00 0.01 0.01 0.00 0.00 0.00 0.00 0.00 0.00 0.00
0.00 0.00 0.00 0.00 0.00 0.00 0.00 0.00 0.00 0.00 0.00 0.00 0.00 0.00 0.00 0.00 0.00 0.00 0.00 0.00 0.00 0.00 0.00 0.00 0.00 0.00 0.00 0.00 0.00 0.00 0.00 0.00 0.00 0.00 0.00 0.00 0.00 0.00 0.00 0.00 0.00 0.00 0.00 0.00 0.00 0.00 0.00
0.00 0.00 0.00 0.00 0.00 0.00 0.00 0.00 0.00 0.00 0.00 0.00 0.00 0.00 0.00 0.00 0.00 0.00 0.00 0.00 0.00 0.00 0.00 0.00 0.00 0.00 0.00 0.00 0.00 0.00 0.00 0.00 0.00 0.00 0.00 0.00 0.00 0.00 0.00 0.00 0.00 0.00 0.00 0.00 0.00 0.00 0.00
0.00 0.00 0.00 0.00 0.00 0.00 0.00 0.00 0.00 0.00 0.00 0.00 0.00 0.00 0.00 0.00 0.00 0.00 0.00 0.00 0.00 0.00 0.00 0.00 0.00 0.00 0.00 0.00 0.00 0.00 0.00 0.00 0.00 0.00 0.00 0.00 0.00 0.00 0.00 0.00 0.00 0.00 0.00 0.00 0.00 0.00 0.00
0.00 0.00 0.00 0.00 0.00 0.00 0.00 0.00 0.00 0.00 0.00 0.00 0.00 0.00 0.00 0.00 0.00 0.00 0.00 0.00 0.00 0.00 0.00 0.00 0.00 0.00 0.00 0.00 0.00 0.00 0.00 0.00 0.00 0.00 0.00 0.00 0.00 0.00 0.00 0.00 0.00 0.00 0.00 0.00 0.00 0.00 0.00
0.00 0.00 0.00 0.00 0.00 0.00 0.00 0.00 0.00 0.00 0.00 0.00 0.00 0.00 0.00 0.00 0.00 0.00 0.00 0.00 0.00 0.00 0.00 0.00 0.00 0.00 0.00 0.00 0.00 0.00 0.00 0.00 0.00 0.00 0.00 0.00 0.00 0.00 0.00 0.00 0.00 0.00 0.00 0.00 0.00 0.00 0.00
0.00 0.00 0.00 0.00 0.00 0.00 0.00 0.00 0.00 0.00 0.00 0.00 0.00 0.00 0.00 0.00 0.00 0.00 0.00 0.00 0.00 0.00 0.00 0.00 0.00 0.00 0.00 0.00 0.00 0.00 0.00 0.00 0.00 0.00 0.00 0.00 0.00 0.00 0.00 0.00 0.00 0.00 0.00 0.00 0.00 0.00 0.00
0.00 0.00 0.00 0.00 0.00 0.00 0.00 0.00 0.00 0.00 0.00 0.00 0.00 0.00 0.00 0.00 0.00 0.00 0.00 0.00 0.00 0.00 0.00 0.00 0.00 0.00 0.00 0.00 0.00 0.00 0.00 0.00 0.00 0.00 0.00 0.00 0.00 0.00 0.00 0.00 0.00 0.00 0.00 0.00 0.00 0.00 0.00
0.00 0.00 0.00 0.00 0.00 0.00 0.00 0.00 0.00 0.00 0.00 0.00 0.00 0.00 0.00 0.00 0.00 0.00 0.00 0.00 0.00 0.00 0.00 0.00 0.00 0.00 0.00 0.00 0.00 0.00 0.00 0.00 0.00 0.00 0.00 0.00 0.00 0.00 0.00 0.00 0.00 0.00 0.00 0.00 0.00 0.00 0.00
0.00 0.00 0.00 0.00 0.00 0.00 0.00 0.00 0.00 0.00 0.00 0.00 0.00 0.00 0.00 0.00 0.00 0.00 0.00 0.00 0.00 0.00 0.00 0.00 0.00 0.00 0.00 0.00 0.00 0.00 0.00 0.00 0.00 0.00 0.00 0.00 0.00 0.00 0.00 0.00 0.00 0.00 0.00 0.00 0.00 0.00 0.00
0.00 0.00 0.00 0.00 0.00 0.00 0.00 0.00 0.00 0.00 0.00 0.00 0.00 0.00 0.00 0.00 0.00 0.00 0.00 0.00 0.00 0.00 0.00 0.00 0.00 0.00 0.00 0.00 0.00 0.00 0.00 0.00 0.00 0.00 0.00 0.00 0.00 0.00 0.00 0.00 0.00 0.00 0.00 0.00 0.00 0.00 0.00
0.00 0.00 0.00 0.00 0.00 0.00 0.00 0.00 0.00 0.00 0.00 0.00 0.00 0.00 0.00 0.00 0.00 0.00 0.00 0.00 0.00 0.00 0.00 0.00 0.00 0.00 0.00 0.00 0.00 0.00 0.00 0.00 0.00 0.00 0.00 0.00 0.00 0.00 0.00 0.00 0.00 0.00 0.00 0.00 0.00 0.00 0.00
0.00 0.00 0.00 0.00 0.00 0.00 0.00 0.00 0.00 0.00 0.00 0.00 0.00 0.00 0.00 0.00 0.00 0.00 0.00 0.00 0.00 0.00 0.00 0.00 0.00 0.00 0.00 0.00 0.00 0.00 0.00 0.00 0.00 0.00 0.00 0.00 0.00 0.00 0.00 0.00 0.00 0.00 0.00 0.00 0.00 0.00 0.00
0.01 0.00 0.00 0.00 0.00 0.00 0.00 0.00 0.00 0.00 0.00 0.00 0.00 0.00 0.00 0.00 0.00 0.00 0.00 0.00 0.00 0.00 0.00 0.00 0.00 0.00 0.00 0.00 0.00 0.00 0.00 0.00 0.00 0.00 0.00 0.00 0.00 0.00 0.00 0.00 0.00 0.00 0.00 0.00 0.00 0.00 0.00
0.01 0.01 0.01 0.01 0.00 0.00 0.00 0.00 0.00 0.00 0.00 0.00 0.00 0.00 0.00 0.00 0.00 0.00 0.00 0.00 0.00 0.00 0.00 0.00 0.00 0.00 0.00 0.00 0.00 0.00 0.00 0.00 0.00 0.00 0.00 0.00 0.00 0.00 0.00 0.00 0.00 0.00 0.00 0.00 0.00 0.00 0.00
0.00 0.01 0.01 0.01 0.01 0.01 0.00 0.00 0.00 0.00 0.00 0.00 0.00 0.00 0.00 0.00 0.00 0.00 0.00 0.00 0.00 0.00 0.00 0.00 0.00 0.00 0.00 0.00 0.00 0.00 0.00 0.00 0.00 0.00 0.00 0.00 0.00 0.00 0.00 0.00 0.00 0.00 0.00 0.00 0.00 0.00 0.00
0.00 0.00 0.00 0.00 0.00 0.00 0.00 0.01 0.00 0.00 0.01 0.00 0.00 0.00 0.00 0.00 0.00 0.00 0.00 0.00 0.00 0.00 0.00 0.00 0.00 0.00 0.00 0.00 0.00 0.00 0.00 0.00 0.00 0.00 0.00 0.00 0.00 0.00 0.00 0.00 0.00 0.00 0.00 0.00 0.00 0.00 0.00
0.00 0.00 0.00 0.00 0.00 0.00 0.00 0.00 0.01 0.01 0.01 0.01 0.00 0.00 0.00 0.00 0.00 0.00 0.00 0.00 0.00 0.00 0.00 0.00 0.00 0.00 0.00 0.00 0.00 0.00 0.00 0.00 0.00 0.00 0.00 0.00 0.00 0.00 0.00 0.00 0.00 0.00 0.00 0.00 0.00 0.00 0.00
0.00 0.00 0.00 0.00 0.00 0.00 0.00 0.00 0.00 0.00 0.01 0.02 0.00 0.00 0.00 0.00 0.00 0.00 0.00 0.00 0.00 0.00 0.00 0.00 0.00 0.00 0.00 0.00 0.00 0.00 0.00 0.00 0.00 0.00 0.00 0.00 0.00 0.00 0.00 0.00 0.00 0.00 0.00 0.00 0.00 0.00 0.00
MSLP
1019.86 1019.65 1019.28 1018.93 1018.53 1018.16 1017.83 1017.66 1017.48 1017.28 1017.04 1016.87 1016.74 1016.63 1016.51 1016.35 1016.19 1016.06 1015.84 1015.66 1015.52 1015.37 1015.29 1015.32 1015.52 1015.52 1015.53 1015.93 1015.36 1014.81 1014.53 1014.63 1014.69 1014.85 1014.94 1015.06 1014.97 1014.64 1014.14 1013.06 1013.19 1012.63 1010.58 1009.86 1009.71 1008.93 1008.20
1020.12 1019.83 1019.45 1019.10 1018.69 1018.24 1017.90 1017.63 1017.38 1017.16 1016.95 1016.77 1016.57 1016.43 1016.35 1016.24 1016.09 1015.83 1015.64 1015.54 1015.58 1015.36 1015.37 1015.46 1015.56 1015.60 1015.70 1015.67 1014.72 1014.69 1014.71 1014.68 1014.64 1014.73 1014.68 1014.68 1014.35 1014.05 1013.78 1013.36 1012.54 1011.67 1010.92 1009.48 1008.93 1008.76 1008.44
1020.45 1020.06 1019.71 1019.31 1018.92 1018.40 1017.97 1017.66 1017.42 1017.18 1016.94 1016.75 1016.60 1016.47 1016.34 1016.19 1016.01 1015.82 1015.49 1015.40 1015.46 1015.47 1015.42 1015.39 1015.48 1015.70 1015.53 1015.00 1014.55 1014.68 1014.63 1014.42 1014.32 1014.43 1014.44 1014.07 1013.89 1013.76 1013.43 1012.95 1012.39 1012.21 1011.22 1009.67 1008.60 1009.52 1009.10
1020.67 1020.21 1019.79 1019.39 1019.09 1018.66 1018.17 1017.76 1017.46 1017.19 1016.97 1016.73 1016.47 1016.29 1016.10 1015.93 1015.79 1015.72 1015.53 1015.42 1015.39 1015.29 1015.25 1015.00 1015.16 1015.64 1015.31 1014.30 1014.27 1014.34 1014.27 1014.01 1014.02 1014.08 1014.15 1013.81 1013.63 1013.73 1013.46 1013.22 1011.99 1012.07 1011.22 1010.20 1009.40 1009.94 1009.20
1020.79 1020.44 1020.00 1019.57 1019.20 1018.84 1018.32 1017.86 1017.47 1017.16 1016.93 1016.73 1016.54 1016.28 1016.07 1015.82 1015.75 1015.73 1015.72 1015.73 1015.43 1015.15 1014.93 1014.76 1015.16 1015.59 1015.16 1014.01 1014.01 1013.97 1014.03 1013.77 1013.52 1013.81 1013.81 1013.64 1013.63 1013.67 1013.56 1013.17 1012.84 1011.93 1010.64 1009.62 1009.33 1008.58 1008.90
1020.95 1020.52 1020.12 1019.72 1019.22 1018.86 1018.45 1017.96 1017.49 1017.10 1016.88 1016.65 1016.53 1016.28 1015.97 1015.71 1015.64 1015.58 1015.67 1015.68 1015.73 1015.40 1015.24 1015.04 1015.17 1016.11 1015.10 1014.38 1014.21 1014.11 1013.90 1013.68 1013.57 1013.08 1013.56 1013.71 1013.74 1013.82 1013.81 1013.25 1012.70 1011.74 1011.25 1009.58 1009.17 1009.42 1010.15
1021.15 1020.66 1020.29 1019.90 1019.49 1019.00 1018.65 1018.13 1017.63 1017.17 1016.88 1016.62 1016.40 1016.39 1016.05 1015.80 1015.57 1015.58 1015.81 1016.00 1016.31 1016.27 1015.87 1015.55 1015.56 1015.48 1015.21 1014.80 1014.28 1014.15 1013.95 1013.74 1013.76 1013.60 1013.58 1013.94 1014.17 1013.79 1013.23 1012.39 1012.37 1011.24 1010.35 1009.65 1009.45 1009.59 1010.43
1021.44 1021.07 1020.49 1020.10 1019.70 1019.29 1018.79 1018.34 1017.78 1017.26 1016.92 1016.72 1016.49 1015.97 1016.18 1016.00 1015.66 1015.79 1016.29 1016.50 1016.64 1016.84 1016.43 1015.62 1015.90 1015.56 1015.20 1015.41 1015.14 1014.69 1014.40 1014.46 1014.21 1014.06 1014.06 1013.87 1013.92 1013.20 1012.64 1012.31 1011.82 1011.29 1009.02 1009.16 1009.61 1009.86 1010.85
1021.49 1021.11 1020.72 1020.30 1019.88 1019.39 1018.88 1018.40 1017.97 1017.42 1016.87 1016.49 1016.40 1015.98 1015.62 1015.99 1015.90 1016.01 1016.43 1016.82 1016.61 1016.65 1016.78 1015.63 1015.65 1015.64 1015.23 1015.53 1015.40 1014.96 1014.86 1014.68 1014.67 1014.66 1013.98 1013.21 1012.69 1012.30 1011.70 1011.16 1010.92 1010.51 1009.41 1009.19 1009.84 1010.89 1011.30
1021.45 1021.13 1020.83 1020.34 1020.03 1019.60 1019.05 1018.41 1017.84 1017.37 1017.01 1016.53 1016.27 1016.16 1015.59 1015.86 1016.27 1016.21 1016.38 1016.56 1016.50 1016.57 1016.76 1015.69 1015.34 1015.16 1015.30 1015.04 1015.28 1014.69 1014.62 1014.82 1014.82 1014.47 1013.70 1012.96 1012.53 1012.46 1011.85 1011.22 1010.70 1010.44 1010.21 1009.67 1010.31 1011.02 1012.70
1021.41 1021.10 1020.76 1020.33 1020.05 1019.74 1019.17 1018.56 1017.95 1017.34 1016.97 1016.62 1016.40 1016.49 1016.18 1015.78 1016.34 1016.53 1016.46 1016.39 1016.58 1016.88 1016.55 1015.46 1014.78 1014.47 1014.65 1014.82 1014.94 1014.48 1014.26 1014.30 1014.02 1013.85 1013.79 1013.18 1012.38 1012.30 1011.55 1011.10 1010.41 1010.55 1010.45 1010.78 1011.31 1011.91 1013.18
1021.27 1021.12 1020.84 1020.44 1019.96 1019.58 1019.18 1018.64 1018.02 1017.43 1016.92 1016.56 1016.39 1016.12 1016.49 1016.30 1016.65 1016.68 1016.70 1016.35 1016.85 1017.26 1015.65 1014.97 1014.50 1014.55 1014.62 1014.49 1014.35 1014.42 1014.25 1014.16 1013.74 1013.47 1013.19 1012.92 1012.04 1011.49 1010.76 1010.55 1009.78 1009.79 1010.68 1011.58 1011.81 1012.63 1013.18
1020.93 1020.76 1020.46 1020.21 1019.87 1019.46 1019.06 1018.51 1017.92 1017.26 1016.76 1016.52 1016.17 1015.95 1016.61 1016.56 1016.42 1016.61 1016.64 1016.84 1017.38 1016.54 1015.66 1015.09 1014.74 1014.66 1015.10 1015.02 1014.61 1014.54 1014.69 1014.72 1014.77 1014.14 1013.37 1012.67 1011.91 1011.08 1010.70 1010.55 1010.49 1010.06 1010.01 1011.82 1012.79 1013.25 1013.31
1020.70 1020.46 1020.30 1019.92 1019.49 1019.14 1018.85 1018.46 1017.88 1017.28 1016.53 1016.14 1016.05 1016.10 1016.22 1016.43 1016.68 1016.55 1016.82 1017.04 1017.42 1015.66 1015.54 1015.29 1015.05 1014.82 1014.99 1015.32 1015.06 1014.93 1015.29 1015.69 1015.25 1014.99 1014.33 1013.04 1012.35 1010.90 1010.16 1010.07 1010.27 1010.39 1010.73 1010.73 1011.42 1012.34 1012.62
1020.50 1020.31 1020.07 1019.79 1019.42 1019.00 1018.62 1018.31 1017.93 1017.23 1016.66 1016.17 1016.06 1016.53 1016.54 1016.73 1016.83 1016.79 1017.26 1017.27 1016.44 1016.30 1015.80 1015.87 1015.51 1015.32 1015.36 1015.49 1015.67 1015.36 1015.38 1015.83 1015.56 1015.02 1014.37 1013.19 1011.66 1010.24 1009.98 1010.13 1010.32 1010.41 1010.17 1009.82 1010.48 1011.39 1011.52
1020.12 1019.76 1019.71 1019.48 1019.17 1018.81 1018.63 1018.41 1017.94 1017.21 1016.61 1016.36 1016.51 1016.72 1016.83 1016.88 1016.96 1017.16 1017.56 1016.85 1016.29 1016.57 1016.56 1016.34 1016.45 1016.21 1016.16 1016.07 1016.19 1015.80 1015.44 1015.06 1015.23 1014.72 1014.29 1013.18 1012.14 1010.49 1009.57 1009.61 1009.69 1009.72 1009.99 1010.20 1010.57 1011.31 1011.27
1019.63 1019.39 1019.15 1018.86 1018.74 1018.64 1018.47 1018.26 1017.85 1017.39 1016.73 1016.36 1016.38 1016.70 1016.97 1016.94 1017.15 1017.71 1017.71 1017.09 1016.87 1016.27 1016.79 1017.01 1016.86 1016.96 1017.02 1016.90 1016.96 1016.54 1015.65 1014.96 1014.64 1014.51 1014.09 1013.68 1012.60 1011.35 1010.31 1009.61 1009.47 1009.87 1009.73 1009.86 1010.14 1010.17 1010.35
1019.35 1019.12 1018.81 1018.63 1018.56 1018.44 1018.29 1018.14 1017.76 1017.51 1016.97 1016.55 1016.97 1017.24 1017.16 1017.14 1017.71 1018.06 1017.77 1017.23 1017.38 1016.79 1016.82 1017.16 1017.30 1017.40 1017.48 1017.44 1017.18 1016.78 1015.88 1015.00 1014.62 1014.31 1014.07 1013.38 1012.65 1011.57 1010.23 1009.34 1009.17 1009.46 1009.80 1010.10 1010.64 1010.75 1010.66
1018.74 1018.66 1018.61 1018.42 1018.30 1018.11 1018.02 1017.84 1017.61 1017.46 1017.10 1017.39 1017.56 1017.71 1017.69 1017.56 1018.06 1018.17 1017.80 1017.54 1017.36 1016.85 1016.77 1017.33 1017.25 1017.55 1017.81 1017.66 1017.46 1016.47 1015.63 1014.78 1014.67 1014.83 1014.48 1014.04 1013.41 1012.60 1011.10 1010.34 1009.77 1009.47 1009.59 1009.90 1010.11 1010.43 1010.29
1018.12 1018.09 1018.06 1018.02 1017.79 1017.68 1017.55 1017.37 1017.39 1017.25 1017.00 1017.42 1018.05 1018.33 1018.27 1018.26 1018.41 1018.36 1018.26 1017.79 1017.50 1017.20 1016.74 1016.72 1017.36 1017.88 1017.90 1017.65 1017.25 1016.66 1015.91 1015.11 1014.95 1014.93 1014.69 1014.41 1013.65 1012.50 1011.38 1010.07 1009.49 1009.63 1009.32 1009.46 1009.78 1010.17 1009.89
1017.24 1017.30 1017.35 1017.29 1017.25 1017.18 1017.05 1017.02 1017.10 1017.10 1017.02 1017.41 1018.15 1018.86 1019.05 1019.14 1019.03 1019.04 1018.61 1018.36 1017.71 1017.47 1017.23 1016.85 1017.25 1017.65 1018.09 1018.34 1017.57 1016.90 1016.33 1015.84 1015.41 1015.29 1015.24 1015.02 1014.11 1012.89 1011.68 1010.84 1010.17 1009.18 1008.65 1008.86 1009.16 1009.00 1008.88
1016.44 1016.52 1016.61 1016.62 1016.55 1016.54 1016.51 1016.52 1016.63 1016.79 1016.78 1017.31 1018.17 1018.91 1019.44 1019.17 1019.26 1019.22 1018.70 1018.25 1017.80 1017.46 1017.16 1017.08 1017.01 1017.22 1017.73 1018.16 1018.02 1017.45 1017.07 1016.68 1016.44 1016.32 1016.05 1015.71 1014.70 1013.36 1011.83 1010.53 1010.12 1009.53 1008.82 1008.60 1008.36 1008.17 1007.74
1015.56 1015.61 1015.70 1015.78 1015.81 1015.78 1015.80 1015.89 1016.05 1016.19 1016.55 1017.21 1017.80 1018.05 1018.52 1019.04 1019.69 1019.60 1018.39 1017.34 1017.04 1016.78 1016.71 1016.37 1016.64 1017.20 1017.58 1017.02 1017.41 1017.54 1017.68 1017.61 1017.41 1017.22 1016.94 1016.66 1015.78 1014.66 1013.03 1011.59 1010.83 1009.71 1008.36 1008.02 1007.85 1007.71 1007.42
1014.94 1014.85 1014.87 1014.90 1014.91 1014.99 1015.05 1015.16 1015.33 1015.59 1015.84 1016.44 1017.05 1017.63 1018.62 1018.82 1019.07 1018.53 1017.56 1016.99 1016.56 1016.40 1016.54 1016.56 1017.02 1016.92 1016.91 1016.91 1017.39 1017.92 1017.86 1017.52 1017.48 1017.37 1017.32 1016.85 1016.12 1014.96 1013.67 1012.47 1010.99 1008.17 1007.34 1007.22 1007.46 1007.21 1007.12
1015.10 1014.63 1014.39 1014.31 1014.26 1014.27 1014.29 1014.30 1014.48 1014.71 1015.07 1015.60 1016.14 1016.81 1017.84 1017.99 1017.43 1017.15 1016.90 1016.67 1016.34 1016.55 1016.70 1016.69 1016.96 1017.09 1017.15 1017.40 1017.73 1017.85 1017.56 1017.53 1016.99 1016.93 1017.10 1017.04 1016.31 1015.21 1013.99 1012.57 1010.45 1008.49 1008.14 1008.00 1007.92 1007.53 1007.47
1015.34 1015.03 1014.72 1014.49 1013.99 1013.61 1013.51 1013.38 1013.43 1013.53 1013.61 1014.52 1014.99 1015.43 1016.51 1016.90 1015.91 1015.28 1015.91 1016.21 1016.48 1016.78 1017.29 1017.18 1017.47 1017.49 1017.46 1017.64 1017.83 1018.17 1017.59 1016.94 1017.31 1017.33 1017.11 1017.08 1016.81 1016.17 1014.77 1013.26 1011.43 1009.58 1008.67 1008.56 1008.38 1008.51 1008.12
1015.41 1015.13 1014.80 1014.57 1014.28 1013.94 1013.66 1013.28 1012.88 1012.73 1012.76 1013.17 1013.49 1014.01 1015.29 1016.15 1014.73 1014.59 1014.76 1014.91 1015.64 1016.47 1017.17 1017.60 1017.82 1018.10 1017.93 1017.83 1018.24 1018.08 1017.42 1016.92 1017.05 1017.14 1017.35 1017.24 1016.86 1016.01 1015.25 1013.95 1011.76 1010.06 1009.53 1009.54 1009.69 1009.53 1008.75
1015.48 1015.09 1014.84 1014.61 1014.34 1014.08 1013.81 1013.40 1012.98 1012.74 1012.05 1011.53 1011.88 1012.51 1012.97 1013.92 1013.36 1013.06 1013.13 1013.84 1014.43 1015.04 1016.04 1017.34 1017.95 1018.31 1018.56 1018.21 1017.97 1017.28 1017.18 1016.67 1016.82 1016.71 1016.51 1016.35 1016.34 1016.05 1015.53 1014.52 1012.74 1010.36 1010.64 1010.69 1010.03 1009.56 1009.38
1015.07 1014.77 1014.43 1014.19 1013.91 1013.66 1013.45 1013.11 1012.85 1012.50 1012.10 1011.89 1011.13 1011.48 1011.73 1012.73 1012.57 1012.07 1011.57 1011.18 1011.30 1011.89 1013.92 1015.79 1015.90 1015.96 1016.38 1016.85 1017.04 1016.84 1016.82 1017.05 1016.73 1016.83 1016.37 1016.03 1014.70 1014.53 1014.10 1012.19 1010.74 1010.59 1010.62 1010.33 1010.33 1010.26 1009.93
Thickness
5637 5635 5634 5633 5632 5631 5630 5626 5623 5620 5617 5613 5608 5602 5595 5589 5582 5573 5566 5557 5545 5531 5513 5491 5472 5462 5452 5439 5436 5438 5435 5429 5425 5421 5417 5418 5419 5426 5439 5467 5482 5495 5524 5549 5566 5579 5597
5633 5631 5631 5630 5630 5629 5627 5624 5621 5618 5615 5610 5605 5599 5592 5585 5577 5569 5561 5552 5538 5525 5507 5485 5470 5460 5450 5434 5440 5434 5429 5425 5420 5416 5414 5415 5421 5428 5440 5458 5479 5504 5519 5546 5562 5577 5588
5627 5627 5626 5626 5626 5625 5624 5622 5619 5615 5611 5606 5601 5595 5588 5581 5573 5565 5558 5548 5536 5519 5504 5486 5470 5459 5449 5440 5438 5429 5424 5421 5418 5415 5413 5418 5422 5430 5445 5463 5487 5495 5512 5543 5562 5566 5580
5623 5623 5623 5623 5621 5620 5620 5618 5615 5611 5607 5602 5597 5592 5586 5579 5571 5562 5553 5544 5533 5519 5504 5490 5474 5459 5446 5450 5441 5432 5425 5420 5417 5415 5413 5416 5423 5429 5444 5462 5492 5499 5514 5533 5550 5559 5577
5619 5618 5618 5617 5616 5615 5614 5613 5611 5608 5603 5598 5593 5588 5582 5577 5568 5558 5547 5537 5531 5520 5507 5494 5478 5461 5448 5455 5443 5435 5427 5422 5423 5415 5416 5420 5423 5431 5448 5459 5477 5486 5522 5539 5545 5563 5574
5615 5615 5614 5613 5612 5611 5609 5608 5606 5604 5600 5595 5590 5585 5580 5574 5567 5558 5546 5536 5526 5518 5507 5494 5482 5459 5454 5449 5443 5434 5428 5425 5421 5424 5421 5422 5424 5425 5444 5461 5492 5501 5514 5541 5549 5558 5563
5610 5610 5609 5607 5605 5604 5603 5602 5602 5599 5595 5592 5587 5579 5575 5570 5565 5557 5546 5532 5520 5512 5501 5494 5482 5466 5455 5449 5442 5434 5430 5427 5423 5424 5426 5425 5415 5428 5457 5483 5489 5505 5517 5550 5552 5562 5558
5602 5601 5602 5601 5600 5598 5597 5595 5595 5594 5591 5586 5581 5578 5570 5564 5561 5552 5541 5531 5521 5511 5500 5497 5483 5472 5462 5446 5438 5433 5429 5422 5422 5425 5430 5432 5418 5458 5482 5488 5492 5507 5545 5545 5547 5558 5553
5597 5595 5594 5593 5592 5592 5592 5590 5588 5587 5587 5584 5578 5575 5571 5561 5554 5548 5538 5528 5522 5515 5501 5504 5490 5476 5470 5451 5443 5432 5427 5426 5423 5427 5440 5446 5466 5479 5493 5507 5512 5519 5536 5546 5550 5548 5548
5593 5590 5587 5587 5584 5583 5582 5583 5582 5581 5579 5577 5573 5568 5567 5559 5550 5542 5535 5528 5522 5516 5490 5513 5497 5488 5476 5466 5449 5447 5439 5436 5438 5449 5458 5475 5482 5483 5495 5509 5520 5521 5530 5549 5554 5555 5546
5586 5584 5582 5580 5577 5575 5575 5575 5574 5574 5572 5570 5566 5560 5556 5553 5544 5536 5532 5526 5518 5512 5496 5518 5511 5504 5491 5484 5469 5467 5461 5458 5475 5478 5474 5475 5494 5494 5503 5514 5525 5527 5534 5538 5539 5540 5539
5581 5577 5574 5573 5572 5570 5568 5568 5568 5567 5566 5564 5560 5556 5548 5545 5538 5531 5524 5522 5515 5506 5518 5518 5517 5508 5503 5496 5491 5480 5478 5476 5480 5493 5495 5496 5505 5511 5519 5523 5532 5538 5537 5536 5538 5537 5538
5578 5574 5572 5569 5566 5564 5562 5562 5562 5561 5559 5557 5555 5552 5541 5537 5536 5527 5521 5514 5511 5512 5528 5525 5520 5515 5498 5486 5501 5495 5486 5482 5476 5480 5474 5515 5521 5524 5527 5526 5535 5547 5547 5533 5534 5529 5538
5572 5569 5565 5563 5562 5558 5556 5554 5553 5553 5555 5554 5550 5545 5540 5534 5527 5524 5517 5510 5516 5526 5516 5514 5515 5521 5513 5502 5507 5503 5488 5464 5487 5485 5473 5499 5485 5528 5536 5540 5542 5544 5545 5547 5540 5543 5546
5565 5562 5559 5556 5553 5551 5549 5546 5544 5545 5545 5546 5543 5536 5531 5526 5520 5517 5509 5505 5524 5507 5507 5507 5513 5527 5526 5513 5495 5511 5496 5471 5480 5483 5506 5513 5533 5544 5543 5544 5545 5546 5548 5563 5550 5551 5558
5559 5557 5552 5549 5546 5543 5539 5536 5535 5537 5538 5536 5531 5527 5524 5518 5513 5507 5492 5522 5510 5495 5492 5495 5509 5500 5501 5496 5505 5498 5508 5499 5484 5496 5499 5522 5526 5546 5556 5554 5554 5552 5556 5553 5553 5550 5562
5555 5552 5548 5546 5542 5537 5533 5530 5530 5528 5529 5529 5526 5526 5514 5509 5504 5492 5483 5502 5496 5494 5488 5489 5492 5484 5481 5483 5469 5475 5501 5510 5503 5506 5505 5509 5527 5541 5549 5552 5551 5550 5552 5562 5560 5560 5559
5549 5546 5543 5541 5537 5534 5529 5526 5525 5522 5522 5524 5517 5516 5508 5503 5494 5478 5477 5494 5491 5485 5481 5476 5474 5475 5474 5473 5469 5477 5488 5500 5507 5507 5513 5514 5520 5534 5547 5556 5557 5552 5554 5554 5549 5562 5547
5548 5544 5538 5534 5532 5529 5525 5523 5522 5520 5518 5512 5501 5505 5499 5497 5492 5480 5486 5487 5482 5482 5479 5472 5472 5470 5468 5472 5473 5481 5493 5504 5502 5494 5495 5505 5512 5509 5527 5546 5550 5553 5553 5553 5551 5547 5554
5543 5540 5535 5530 5529 5526 5524 5522 5517 5514 5513 5506 5494 5487 5489 5485 5480 5485 5490 5489 5484 5475 5478 5473 5467 5461 5460 5461 5464 5474 5488 5492 5492 5493 5500 5496 5503 5522 5537 5546 5551 5547 5553 5551 5552 5542 5552
5543 5538 5533 5529 5526 5523 5521 5517 5512 5508 5506 5500 5481 5476 5469 5468 5467 5455 5470 5457 5468 5464 5467 5468 5462 5459 5451 5445 5457 5462 5471 5478 5482 5481 5482 5481 5493 5509 5517 5523 5533 5549 5555 5550 5546 5556 5557
5540 5535 5530 5527 5524 5520 5517 5513 5508 5503 5499 5492 5476 5472 5456 5446 5448 5460 5461 5445 5461 5458 5455 5451 5456 5453 5444 5435 5441 5450 5452 5463 5464 5462 5461 5455 5470 5494 5507 5527 5522 5528 5539 5539 5547 5553 5560
5540 5536 5530 5526 5522 5518 5514 5510 5504 5500 5495 5485 5477 5475 5470 5463 5436 5443 5454 5467 5465 5469 5460 5463 5453 5442 5437 5445 5437 5433 5431 5431 5437 5438 5441 5441 5459 5466 5479 5503 5498 5500 5533 5541 5542 5544 5556
5536 5532 5527 5524 5520 5516 5512 5508 5503 5497 5492 5485 5477 5470 5457 5453 5447 5444 5460 5467 5469 5465 5451 5456 5444 5443 5444 5434 5428 5417 5413 5419 5420 5424 5428 5438 5449 5462 5476 5474 5487 5537 5539 5539 5540 5549 5539
5525 5525 5523 5520 5518 5514 5510 5506 5499 5493 5486 5480 5472 5466 5451 5441 5452 5455 5450 5452 5458 5453 5446 5446 5438 5433 5425 5426 5424 5423 5428 5422 5421 5417 5416 5421 5430 5454 5465 5479 5485 5520 5517 5521 5518 5535 5525
5515 5514 5513 5512 5512 5510 5506 5502 5496 5489 5483 5474 5466 5455 5443 5436 5449 5455 5442 5427 5431 5414 5413 5423 5418 5416 5418 5417 5409 5412 5430 5437 5424 5411 5408 5409 5413 5422 5428 5466 5448 5504 5502 5496 5506 5501 5506
5507 5505 5503 5500 5497 5494 5492 5490 5487 5481 5471 5465 5460 5447 5428 5419 5435 5432 5423 5430 5414 5395 5390 5388 5392 5393 5399 5386 5397 5392 5410 5407 5416 5410 5405 5407 5404 5416 5427 5438 5433 5468 5480 5477 5483 5496 5491
5496 5494 5491 5487 5483 5479 5476 5473 5469 5463 5458 5449 5451 5437 5423 5410 5423 5424 5424 5411 5403 5396 5400 5382 5383 5369 5362 5376 5384 5395 5394 5402 5389 5382 5395 5404 5399 5397 5403 5398 5416 5455 5458 5461 5463 5465 5472
5489 5485 5482 5477 5473 5469 5462 5456 5450 5444 5439 5426 5429 5418 5406 5393 5402 5409 5414 5420 5422 5418 5395 5371 5384 5380 5385 5368 5368 5381 5388 5362 5381 5402 5374 5390 5408 5405 5415 5430 5444 5442 5435 5434 5433 5449 5460